Starlink 3858

operational
NORAD ID: 52553 Int'l Des: 2022-051 Owner: SPXS Country: US Constellation: starlink
LEOCIRCULAR

关于 Starlink 3858

正在加载描述...

实时位置

正在加载3D地球...

即将过境

高度历史

Altitude vs Time

uPlot chart will show altitude changes over time

两行轨道根数

1 52553U 22051W 25302.87854716 -.00000195 00000-0 58246-5 0 9994
2 52553 53.2185 356.0144 0001555 85.0801 275.0368 15.08844885191707
Epoch: Oct 29, 2025 • Age: 11 hours

当前状态

高度 557.6 km
速度 7.58 km/s
星下点 -49.12°S, 137.38°E
发射日期 May 13, 2022
运行时间 3.4 years
类型 internet

技术详情

分类 Payload
质量 297.00 kg
干质量 275.00 kg
总质量 297.00 kg
长度 0.20 m
直径 2.80 m
跨度 9.00 m
形状 Box + pan
制造商 SPXS
平台类型 Starlink
阶段状态 In Orbit
所有者/国家 SPXS/US

大型星座

Loading constellations...